sat.trackr.live / text

‹ back to catalog

STARLINK-31560

NORAD 59361 · 2024-060P

PAYLOAD ACTIVE UNKNOWN

§ Identity

Operator
Country
US
Launch date
2024-03-31
Launch site
AFETR
Launch vehicle
Mass (kg)
RCS (m²)

Purposes: comms

External: N2YO · Heavens-Above · Gunter

§ Orbital elements

Epoch: 2026-09-20T14:58:09.105600Z

Period
94.27 min
Inclination
42.9997°
Eccentricity
0.0001208
Mean motion
15.27573794 rev/d
Perigee alt
482.2 km
Apogee alt
483.9 km
Semi-major
6,861.2 km
B*
3.0734e-5
RAAN
239.1245°
Arg perigee
274.6080°
Mean anomaly
85.4634°
Rev number
13,987

§ Raw data

STARLINK-315601 59361U 24060P   26263.62371650  .00000584  00000+0  30734-4 0  99922 59361  42.9997 239.1245 0001208 274.6080  85.4634 15.27573794139878

JSON: /api/v1/satellites/59361 · /tle

For live sub-satellite position, see the globe view (requires WebGL).

§ Visibility from observer

Set your observer location to see the next 7 days of passes ≥ 10°. The values pass through the URL so the page stays shareable.

No JS? Fill the form by hand. The geolocation button needs JavaScript.